Location: *
(1.3500°S, 147.5000°W)
Time: 23:20:40
(UTC+00:00)

Meteor 2-10 - Pass Details

Date: 07 April 2020
Orbit: 737 x 869 km, 81.2° (Epoch: 06 June)

Event Time Altitude Azimuth Distance (km) Brightness Sun altitude
Rises 04:29:50 0° 178° (S) 3,211 7.1 -9.5°
Reaches altitude 10° 04:32:11 10° 174° (S) 2,299 6.3 -10.1°
Maximum altitude 04:37:16 59° 95° (E) 895 4.0 -11.4°
Drops below altitude 10° 04:42:31 10° 16° (NNE) 2,370 6.5 -12.7°
Sets 04:44:58 0° 12° (NNE) 3,319 7.2 -13.3°
